linux/drivers/watchdog/
<<
>>
Prefs
Kconfig 67017 2019-08-16 08:11:12
Makefile 8405 2019-08-16 08:11:12
acquirewdt.c 8687 2019-08-16 08:11:12
advantechwdt.c 7986 2019-08-16 08:11:12
alim1535_wdt.c 9928 2019-08-16 08:11:12
alim7101_wdt.c 11210 2019-08-16 08:11:12
ar7_wdt.c 7197 2019-08-16 08:11:12
armada_37xx_wdt.c 10211 2019-08-16 08:11:12
asm9260_wdt.c 8636 2021-08-29 15:04:50 -0700
aspeed_wdt.c 9368 2019-08-16 08:11:12
at91rm9200_wdt.c 7844 2019-08-16 08:11:12
at91sam9_wdt.c 10662 2021-08-29 15:04:50 -0700
at91sam9_wdt.h 1318 2019-08-16 08:11:12
ath79_wdt.c 7359 2019-08-16 08:11:12
atlas7_wdt.c 5508 2019-08-16 08:11:12
bcm2835_wdt.c 6553 2019-08-16 08:11:12
bcm47xx_wdt.c 5890 2021-08-29 15:04:50 -0700
bcm63xx_wdt.c 6916 2019-08-16 08:11:12
bcm7038_wdt.c 5121 2019-08-16 08:11:12
bcm_kona_wdt.c 8731 2019-08-16 08:11:12
bd70528_wdt.c 7280 2019-08-16 08:11:12
booke_wdt.c 5778 2019-08-16 08:11:12
cadence_wdt.c 12039 2019-08-16 08:11:12
coh901327_wdt.c 11812 2019-08-16 08:11:12
cpu5wdt.c 6144 2019-08-16 08:11:12
cpwd.c 16202 2019-08-16 08:11:12
da9052_wdt.c 4824 2019-08-16 08:11:12
da9055_wdt.c 4136 2021-08-29 15:04:50 -0700
da9062_wdt.c 5901 2019-08-16 08:11:12
da9063_wdt.c 6362 2019-08-16 08:11:12
davinci_wdt.c 7738 2019-08-16 08:11:12
diag288_wdt.c 7700 2019-08-16 08:11:12
digicolor_wdt.c 3980 2019-08-16 08:11:12
dw_wdt.c 8644 2019-08-16 08:11:12
ebc-c384_wdt.c 4004 2019-08-16 08:11:12
ep93xx_wdt.c 3696 2021-08-29 15:04:50 -0700
eurotechwdt.c 10950 2019-08-16 08:11:12
f71808e_wdt.c 21331 2019-08-16 08:11:12
ftwdt010_wdt.c 5435 2019-08-16 08:11:12
gef_wdt.c 7451 2019-08-16 08:11:12
geodewdt.c 6388 2019-08-16 08:11:12
gpio_wdt.c 4259 2019-08-16 08:11:12
hpwdt.c 9301 2019-08-16 08:11:12
i6300esb.c 10302 2019-08-16 08:11:12
iTCO_vendor.h 480 2019-08-16 08:11:12
iTCO_vendor_support.c 6639 2019-08-16 08:11:12
iTCO_wdt.c 17736 2019-08-16 08:11:12
ib700wdt.c 8522 2019-08-16 08:11:12
ibmasr.c 9623 2019-08-16 08:11:12
ie6xx_wdt.c 7706 2019-08-16 08:11:12
imgpdc_wdt.c 9008 2021-08-29 15:04:50 -0700
imx2_wdt.c 12098 2019-08-16 08:11:12
imx_sc_wdt.c 4432 2019-08-16 08:11:12
indydog.c 4488 2019-08-16 08:11:12
intel-mid_wdt.c 4466 2019-08-16 08:11:12
intel_scu_watchdog.c 14101 2019-08-16 08:11:12
intel_scu_watchdog.h 1270 2019-08-16 08:11:12
iop_wdt.c 5403 2019-08-16 08:11:12
it8712f_wdt.c 9984 2019-08-16 08:11:12
it87_wdt.c 7434 2019-08-16 08:11:12
ixp4xx_wdt.c 4974 2019-08-16 08:11:12
jz4740_wdt.c 5713 2019-08-16 08:11:12
kempld_wdt.c 14004 2021-08-29 15:04:50 -0700
ks8695_wdt.c 7684 2019-08-16 08:11:12
lantiq_wdt.c 7560 2021-08-29 15:04:50 -0700
loongson1_wdt.c 3701 2019-08-16 08:11:12
lpc18xx_wdt.c 8936 2019-08-16 08:11:12
m54xx_wdt.c 5125 2019-08-16 08:11:12
machzwd.c 9861 2019-08-16 08:11:12
max63xx_wdt.c 6934 2021-08-29 15:04:50 -0700
max77620_wdt.c 5228 2019-08-16 08:11:12
mei_wdt.c 15213 2019-08-16 08:11:12
mena21_wdt.c 5286 2019-08-16 08:11:12
menf21bmc_wdt.c 4943 2019-08-16 08:11:12
menz69_wdt.c 4055 2019-08-16 08:11:12
meson_gxbb_wdt.c 5347 2019-08-16 08:11:12
meson_wdt.c 5983 2019-08-16 08:11:12
mixcomwd.c 7224 2019-08-16 08:11:12
mlx_wdt.c 7954 2019-08-16 08:11:12
moxart_wdt.c 4339 2021-08-29 15:04:50 -0700
mpc8xxx_wdt.c 7059 2019-08-16 08:11:12
mt7621_wdt.c 4633 2021-08-29 15:04:50 -0700
mtk_wdt.c 5921 2019-08-16 08:11:12
mtx-1_wdt.c 5956 2019-08-16 08:11:12
mv64x60_wdt.c 7820 2019-08-16 08:11:12
ni903x_wdt.c 6360 2019-08-16 08:11:12
nic7018_wdt.c 5798 2019-08-16 08:11:12
npcm_wdt.c 5791 2019-08-16 08:11:12
nuc900_wdt.c 7068 2019-08-16 08:11:12
nv_tco.c 12278 2019-08-16 08:11:12
nv_tco.h 2062 2019-08-16 08:11:12
octeon-wdt-main.c 16868 2019-08-16 08:11:12
octeon-wdt-nmi.S 2042 2021-08-29 15:04:50 -0700
of_xilinx_wdt.c 7629 2019-08-16 08:11:12
omap_wdt.c 9737 2019-08-16 08:11:12
omap_wdt.h 2300 2019-08-16 08:11:12
orion_wdt.c 16764 2019-08-16 08:11:12
pc87413_wdt.c 14372 2019-08-16 08:11:12
pcwd.c 26565 2019-08-16 08:11:12
pcwd_pci.c 20376 2019-08-16 08:11:12
pcwd_usb.c 21616 2019-08-16 08:11:12
pic32-dmt.c 5271 2019-08-16 08:11:12
pic32-wdt.c 5708 2019-08-16 08:11:12
pika_wdt.c 6930 2019-08-16 08:11:12
pm8916_wdt.c 5472 2019-08-16 08:11:12
pnx4008_wdt.c 7177 2019-08-16 08:11:12
pnx833x_wdt.c 7035 2019-08-16 08:11:12
pretimeout_noop.c 1057 2021-08-29 15:04:50 -0700
pretimeout_panic.c 1039 2021-08-29 15:04:50 -0700
qcom-wdt.c 6439 2019-08-16 08:11:12
rave-sp-wdt.c 8344 2019-08-16 08:11:12
rc32434_wdt.c 8102 2019-08-16 08:11:12
rdc321x_wdt.c 6670 2019-08-16 08:11:12
renesas_wdt.c 7538 2019-08-16 08:11:12
retu_wdt.c 4630 2019-08-16 08:11:12
riowd.c 5752 2019-08-16 08:11:12
rn5t618_wdt.c 5014 2019-08-16 08:11:12
rt2880_wdt.c 4633 2021-08-29 15:04:50 -0700
rtd119x_wdt.c 3724 2021-08-29 15:04:50 -0700
rza_wdt.c 6124 2021-08-29 15:04:50 -0700
s3c2410_wdt.c 19126 2019-08-16 08:11:12
sa1100_wdt.c 5229 2019-08-16 08:11:12
sama5d4_wdt.c 7593 2019-08-16 08:11:12
sb_wdog.c 8746 2019-08-16 08:11:12
sbc60xxwdt.c 10138 2019-08-16 08:11:12
sbc7240_wdt.c 7044 2019-08-16 08:11:12
sbc8360.c 10034 2019-08-16 08:11:12
sbc_epx_c3.c 4904 2019-08-16 08:11:12
sbc_fitpc2_wdt.c 5372 2019-08-16 08:11:12
sbsa_gwdt.c 10453 2019-08-16 08:11:12
sc1200wdt.c 11189 2019-08-16 08:11:12
sc520_wdt.c 10872 2019-08-16 08:11:12
sch311x_wdt.c 13804 2019-08-16 08:11:12
scx200_wdt.c 6265 2019-08-16 08:11:12
shwdt.c 9026 2021-08-29 15:04:50 -0700
sirfsoc_wdt.c 5514 2019-08-16 08:11:12
smsc37b787_wdt.c 15261 2019-08-16 08:11:12
softdog.c 4654 2019-08-16 08:11:12
sp5100_tco.c 12530 2019-08-16 08:11:12
sp5100_tco.h 2307 2019-08-16 08:11:12
sp805_wdt.c 8915 2019-08-16 08:11:12
sprd_wdt.c 9349 2019-08-16 08:11:12
st_lpc_wdt.c 7085 2019-08-16 08:11:12
stm32_iwdg.c 7193 2019-08-16 08:11:12
stmp3xxx_rtc_wdt.c 3932 2019-08-16 08:11:12
stpmic1_wdt.c 3593 2021-08-29 15:04:50 -0700
sun4v_wdt.c 4390 2021-08-29 15:04:50 -0700
sunxi_wdt.c 7610 2019-08-16 08:11:12
tangox_wdt.c 4885 2019-08-16 08:11:12
tegra_wdt.c 7180 2019-08-16 08:11:12
tqmx86_wdt.c 3008 2021-08-29 15:04:50 -0700
ts4800_wdt.c 5152 2019-08-16 08:11:12
ts72xx_wdt.c 4283 2021-08-29 15:04:50 -0700
twl4030_wdt.c 2983 2021-08-29 15:04:50 -0700
txx9wdt.c 4458 2021-08-29 15:04:50 -0700
uniphier_wdt.c 6435 2021-08-29 15:04:50 -0700
ux500_wdt.c 3972 2021-08-29 15:04:50 -0700
via_wdt.c 7628 2021-08-29 15:04:50 -0700
w83627hf_wdt.c 11912 2019-08-16 08:11:12
w83877f_wdt.c 9963 2019-08-16 08:11:12
w83977f_wdt.c 11883 2019-08-16 08:11:12
wafer5823wdt.c 7259 2019-08-16 08:11:12
watchdog_core.c 11132 2019-08-16 08:11:12
watchdog_core.h 1330 2019-08-16 08:11:12
watchdog_dev.c 30135 2019-08-16 08:11:12
watchdog_pretimeout.c 4591 2019-08-16 08:11:12
watchdog_pretimeout.h 1684 2021-08-29 15:04:50 -0700
wd501p.h 1598 2019-08-16 08:11:12
wdat_wdt.c 12712 2019-08-16 08:11:12
wdrtas.c 14976 2019-08-16 08:11:12
wdt.c 15839 2019-08-16 08:11:12
wdt285.c 4638 2019-08-16 08:11:12
wdt977.c 11864 2019-08-16 08:11:12
wdt_pci.c 17666 2019-08-16 08:11:12
wm831x_wdt.c 7104 2019-08-16 08:11:12
wm8350_wdt.c 4098 2021-08-29 15:04:50 -0700
xen_wdt.c 4627 2019-08-16 08:11:12
ziirave_wdt.c 19220 2019-08-16 08:11:12
zx2967_wdt.c 6985 2019-08-16 08:11:12